Starlink 1848

operational
NORAD ID: 46740 Int'l Des: 2020-074 Owner: SPXS Country: US Constellation: starlink
LEOCIRCULAR

Über Starlink 1848

Beschreibung wird geladen...

Live-Position

3D-Globus wird geladen...

Nächste Überflüge

Höhenverlauf

Altitude vs Time

uPlot chart will show altitude changes over time

Zweizeiliger Elementsatz

1 46740U 20074B 25351.00003472 .00164944 00000-0 20752-2 0 9992
2 46740 53.0474 305.8784 0002992 51.9345 115.7071 15.58614032 5978
Epoch: 17. Dez. 2025 • Age: 5 hours

Aktueller Status

Höhe 409.7 km
Geschwindigkeit 7.66 km/s
Subsatellitenpunkt -47.60°S, 19.44°E
Startdatum 24. Okt. 2020
Alter 5.1 years
Typ internet

Technische Details

Klassifizierung Payload
Masse 260.00 kg
Trockenmasse 248.00 kg
Gesamtmasse 260.00 kg
Länge 0.20 m
Durchmesser 2.80 m
Spannweite 9.00 m
Form Box + pan
Hersteller SPXS
Bus-Typ Starlink
Phasenstatus In Orbit
Besitzer/Staat SPXS/US

Große Konstellationen

Loading constellations...